Tracking 20625 objects as of 9-Apr-2020
HD Live streaming from Space Station
objects crossing your sky now

OPS 5712 (P/L 152)

Track OPS 5712 (P/L 152) now!
10-day predictions
OPS 5712 (P/L 152) is classified as:


NORAD ID: 2873
Int'l Code: 1967-053G
Perigee: 901.3 km
Apogee: 915.5 km
Inclination: 70.0 °
Period: 103.0 minutes
Semi major axis: 7279 km
RCS: 0.648 m2 (medium)
Launch date: May 31, 1967
Source: United States (US)
Launch site: AIR FORCE WESTERN TEST RANGE (AFWTR)
aabbcc
Your satellite tracking list
Your tracking list is empty




NASA's NSSDC Master Catalog

Two Line Element Set (TLE):
1  2873U 67053G   20099.80586052 -.00000029 +00000-0 +17111-4 0  9992
2  2873 069.9742 225.1597 0009746 228.2544 243.1448 13.97839208692758
Source of the keplerian elements: AFSPC